Weather History for KLGA - June, 2012

Change the Weather History Date:

Sunday, June 3, 2012

  Actual Average Record
Temperature  
Mean Temperature 70 °F 68 °F  
Max Temperature 77 °F 77 °F 93 °F (1943)
Min Temperature 62 °F 60 °F 49 °F (1946)
Degree Days  
Heating Degree Days 0 1  
Month to date heating degree days 0 5  
Since 1 June heating degree days 0 5  
Since 1 July heating degree days 3601 4653  
Cooling Degree Days 5 5  
Month to date cooling degree days 14 14  
Year to date cooling degree days 137 80  
Since 1 June cooling degree days 14 14  
Growing Degree Days 20 (Base 50)    
Moisture  
Dew Point 51 °F    
Average Humidity 50    
Maximum Humidity 68    
Minimum Humidity 31    
Precipitation  
Precipitation 0.01 in 0.14 in 2.47 in (1996)
Month to date precipitation 1.12 0.42  
Year to date precipitation 13.82 18.11  
Snow  
Snow 0.00 in 0.00 in - ()
Month to date snowfall 0.0 0.0  
Since 1 July snowfall 5.1 26.9  
Snow Depth 0.00 in    
Sea Level Pressure  
Sea Level Pressure 29.70 in    
Wind  
Wind Speed 11 mph (WNW)    
Max Wind Speed 30 mph    
Max Gust Speed 38 mph    
Visibility 10 miles    
Events Rain , Thunderstorm    
T = Trace of Precipitation, MM = Missing Value Source: NWS Daily Summary

Daily Weather History Graph

Daily Weather History Graph

Search for Another Location

Airport or City:

Trip Planner

Search our weather history database for the weather conditions in past years. The results will help you decide how hot, cold, wet, or windy it might be!

Date:

Astronomy

Jun. 03, 2012 Rise Set
Actual Time 5:25 AM EDT 8:22 PM EDT
Civil Twilight 4:52 AM EDT 8:55 PM EDT
Nautical Twilight 4:10 AM EDT 9:37 PM EDT
Astronomical Twilight 3:22 AM EDT 10:25 PM EDT
Moon 7:44 PM EDT (6/3) 4:31 AM EDT (6/3)
Length of Visible Light 16h 02m
Length of Day
14h 57m
Waxing Gibbous, 99% of the Moon is Illuminated
Jun 3
Waxing Gibbous
Jun 4
Full
Jun 11
Last Quarter
Jun 19
New
Jun 26
First Quarter

Hourly Weather History & Observations

Time (EDT) Temp. Dew Point Humidity Pressure Visibility Wind Dir Wind Speed Gust Speed Precip Events Conditions
12:51 AM 64.9 °F 48.0 °F 54% 29.76 in 10.0 mi NW 9.2 mph - N/A   Partly Cloudy
1:51 AM 64.0 °F 48.9 °F 58% 29.76 in 10.0 mi NW 6.9 mph - N/A   Clear
2:51 AM 64.0 °F 48.0 °F 56% 29.75 in 10.0 mi WNW 6.9 mph - N/A   Clear
3:51 AM 63.0 °F 48.0 °F 58% 29.75 in 10.0 mi Calm Calm - N/A   Partly Cloudy
4:51 AM 62.1 °F 48.0 °F 60% 29.75 in 10.0 mi West 3.5 mph - N/A   Scattered Clouds
5:51 AM 62.1 °F 48.0 °F 60% 29.75 in 10.0 mi West 3.5 mph - N/A   Scattered Clouds
6:51 AM 63.0 °F 48.0 °F 58% 29.76 in 10.0 mi West 4.6 mph - N/A   Scattered Clouds
7:51 AM 64.9 °F 48.0 °F 54% 29.75 in 10.0 mi WNW 9.2 mph - N/A   Scattered Clouds
8:51 AM 66.2 °F 48.2 °F 52% 29.74 in 10.0 mi WNW 5.8 mph - N/A   Scattered Clouds
9:51 AM 68.0 °F 48.9 °F 50% 29.73 in 10.0 mi NW 15.0 mph 20.7 mph N/A   Scattered Clouds
10:51 AM 71.1 °F 48.9 °F 45% 29.73 in 10.0 mi West 13.8 mph - N/A   Scattered Clouds
11:51 AM 73.4 °F 48.2 °F 41% 29.71 in 10.0 mi West 9.2 mph - N/A   Scattered Clouds
12:51 PM 75.0 °F 46.9 °F 37% 29.69 in 10.0 mi WNW 11.5 mph 21.9 mph N/A   Mostly Cloudy
1:51 PM 77.0 °F 45.0 °F 32% 29.67 in 10.0 mi WNW 16.1 mph 21.9 mph N/A   Mostly Cloudy
2:51 PM 69.1 °F 53.1 °F 57% 29.69 in 6.0 mi West 20.7 mph 38.0 mph 0.00 in Rain Rain
3:51 PM 73.0 °F 50.0 °F 44% 29.68 in 10.0 mi West 13.8 mph 19.6 mph 0.00 in   Mostly Cloudy
4:51 PM 73.0 °F 52.0 °F 48% 29.65 in 10.0 mi SW 15.0 mph 20.7 mph 0.00 in Rain Light Rain
5:51 PM 66.9 °F 57.0 °F 70% 29.64 in 9.0 mi North 8.1 mph - 0.00 in Rain Light Rain
6:18 PM 68.0 °F 57.2 °F 68% 29.64 in 5.0 mi NW 18.4 mph 27.6 mph 0.00 in Rain , Thunderstorm Thunderstorms and Rain
6:47 PM 68.0 °F 57.2 °F 68% 29.64 in 10.0 mi West 6.9 mph - 0.01 in   Mostly Cloudy
6:51 PM 68.0 °F 57.0 °F 68% 29.64 in 10.0 mi West 8.1 mph - 0.01 in   Mostly Cloudy
7:51 PM 66.9 °F 55.0 °F 66% 29.65 in 10.0 mi WNW 15.0 mph 20.7 mph N/A   Mostly Cloudy
8:51 PM 66.9 °F 55.0 °F 66% 29.66 in 10.0 mi WNW 11.5 mph - N/A   Mostly Cloudy
9:51 PM 66.9 °F 53.1 °F 61% 29.67 in 10.0 mi WNW 13.8 mph 24.2 mph N/A   Mostly Cloudy
10:51 PM 66.0 °F 53.1 °F 63% 29.66 in 10.0 mi West 13.8 mph 23.0 mph N/A   Mostly Cloudy
11:51 PM 66.0 °F 53.1 °F 63% 29.66 in 10.0 mi WNW 15.0 mph 23.0 mph N/A   Mostly Cloudy